Regional Weather Roundup
Issued by NWS

Home | Current Version | Previous Version | Graphics & Text | Print | Product List | Glossary On
Versions: 1 2 3 4 5 6 7 8 9 10 11 12 13 14 15 16 17 18 19 20 21 22 23 24 25 26 27 28 29 30 31 32 33 34 35 36 37 38 39 40 41 42 43 44 45 46 47 48 49 50
000
ASUS43 KIND 231809
RWRIN

WEATHER ROUNDUP FOR INDIANA
NATIONAL WEATHER SERVICE INDIANAPOLIS IN
100 PM EST THU FEB 23 2017

NOTE: "FAIR" INDICATES FEW OR NO CLOUDS BELOW 12,000 FEET WITH NO
SIGNIFICANT WEATHER AND/OR OBSTRUCTIONS TO VISIBILITY.

* - STATION DOES NOT REPORT WEATHER SUCH AS PRECIPITATION OR FOG.

+ - STATION NOT QUALITY CONTROLLED BY THE NATIONAL WEATHER SERVICE.
    USE DATA WITH CAUTION...ESPECIALLY DEWPOINT AND RELATIVE
    HUMIDITY OBSERVATIONS.

INZ001>003-010>013-019-020-231900-
NORTHWEST INDIANA

CITY           SKY/WX    TMP DP  RH WIND       PRES   REMARKS
KNOX *+        PTSUNNY   54  27  35 N14       29.80R
LA PORTE +     PTSUNNY   48  42  78 N10       29.82R
6HR MIN TEMP:  37; 6HR MAX TEMP:  50;

MICHIGAN CITY+ CLOUDY    43  37  81 N10       29.84R
MONTICELLO +   CLOUDY    62  47  60 CALM      29.76R
6HR MIN TEMP:  42; 6HR MAX TEMP:  62;

RENSSELAER +   CLOUDY    57  48  72 N9        29.78S
VALPARAISO     CLOUDY    49  42  77 N13       29.82R
6HR MIN TEMP:  43; 6HR MAX TEMP:  55;


$$

LMZ046-743>745-231900-
SOUTHERN LAKE MICHIGAN

STATION/POSITION TIME  TEMP    WIND        PRES    WAVE
                       AIR SEA DIR/SP/G            HT
                 (UTC) (F)     (DEG/KT/KT) (MB)    (FT)
BURNS HARBOR     1740   39     360/ 10/ 12 1011.2R
MICHIGAN CITY    1740   39     340/  9/  9   N/A

$$

INZ004-005-014>016-021>024-231900-
NORTH CENTRAL INDIANA

CITY           SKY/WX    TMP DP  RH WIND       PRES   REMARKS
ELKHART        MOSUNNY   52  43  71 NW9       29.78F
GOSHEN         MOSUNNY   59  45  59 NW6       29.75F
6HR MIN TEMP:  46; 6HR MAX TEMP:  59;

LOGANSPORT +   MOSUNNY   63  50  63 W3        29.77R
PERU/GRISSOM   MOSUNNY   65  52  64 S7        29.74F
6HR MIN TEMP:  47; 6HR MAX TEMP:  65;

ROCHESTER +    MOSUNNY   63  48  59 N3        29.76S
SOUTH BEND     CLOUDY    49  42  77 N13       29.81R
6HR MIN TEMP:  43; 6HR MAX TEMP:  52;

WARSAW +       MOSUNNY   61  46  59 CALM      29.75F

$$

INZ006>009-017-018-025>027-231900-
NORTHEAST INDIANA

CITY           SKY/WX    TMP DP  RH WIND       PRES   REMARKS
ANGOLA *+      SUNNY     63  48  59 VRB5      29.74F
AUBURN +       SUNNY     63  45  51 W5        29.76F
FORT WAYNE     PTSUNNY   65  48  54 VRB6      29.75F
6HR MIN TEMP:  50; 6HR MAX TEMP:  65;

HUNTINGTON +   SUNNY     65  49  55 S7        29.75F
6HR MIN TEMP:  50; 6HR MAX TEMP:  65;

KENDALLVILLE + SUNNY     61  47  60 CALM      29.75F

$$

INZ028-029-035-036-043>045-051>053-231900-
WEST CENTRAL INDIANA

CITY           SKY/WX    TMP DP  RH WIND       PRES   REMARKS
LAFAYETTE      CLOUDY    61  52  72 SW3       29.76R
6HR MIN TEMP:  45; 6HR MAX TEMP:  62;

TERRE HAUTE    CLOUDY    65  54  67 SW12      29.74F
6HR MIN TEMP:  48; 6HR MAX TEMP:  66;


$$

INZ030>032-037>040-046>048-054>057-064-065-231900-
CENTRAL INDIANA

CITY           SKY/WX    TMP DP  RH WIND       PRES   REMARKS
CP ATTERBURY + CLOUDY    70  54  56 SW8       29.76F
COLUMBUS       MOSUNNY   68  57  68 SW13      29.76F
FRANKFORT +    CLOUDY    62  56  81 SW6       29.78R
6HR MIN TEMP:  50; 6HR MAX TEMP:  63;

GREENWOOD *+   CLOUDY    67  56  67 SW9       29.77F
6HR MIN TEMP:  51; 6HR MAX TEMP:  67;

INDIANAPOLIS   CLOUDY    66  54  65 SW9       29.75F
6HR MIN TEMP:  51; 6HR MAX TEMP:  66;

-EAGLE CREEK   CLOUDY    65  55  70 S6        29.74F
6HR MIN TEMP:  51; 6HR MAX TEMP:  64;

KOKOMO +       MOSUNNY   64  53  67 S14       29.76F
6HR MIN TEMP:  48; 6HR MAX TEMP:  64;

MARION +       CLOUDY    60  53  77 SW9       29.76F
MT COMFORT *+  CLOUDY    64  55  72 MISG      29.76F
SHELBYVILLE    CLOUDY    67  55  65 SW8       29.75F
6HR MIN TEMP:  55; 6HR MAX TEMP:  68;

ZIONSVILLE +   CLOUDY    58  55  89 S9        29.77S
6HR MIN TEMP:  50; 6HR MAX TEMP:  59;


$$

INZ033-034-041-042-049-050-058-059-231900-
EAST CENTRAL INDIANA

CITY           SKY/WX    TMP DP  RH WIND       PRES   REMARKS
MUNCIE         PTSUNNY   62  55  77 SW10      29.76F
6HR MIN TEMP:  56; 6HR MAX TEMP:  63;


$$

INZ060-061-067>069-081>083-085>088-231900-
SOUTHWEST INDIANA

CITY           SKY/WX    TMP DP  RH WIND       PRES   REMARKS
EVANSVILLE     PTSUNNY   69  55  60 SW14      29.76F
6HR MIN TEMP:  52; 6HR MAX TEMP:  71;

HUNTINGBURG *+ CLOUDY    68  58  70 S9        29.77F
6HR MIN TEMP:  56; 6HR MAX TEMP:  68;

WASHINGTON +   CLOUDY    67  55  64 S9        29.75F
6HR MIN TEMP:  54; 6HR MAX TEMP:  68;


$$

INZ062-063-066-070>080-084-089>092-231900-
SOUTH CENTRAL AND SOUTHEAST INDIANA

CITY           SKY/WX    TMP DP  RH WIND       PRES   REMARKS
BEDFORD +      CLOUDY    68  54  60 S12G17    29.77F
BLOOMINGTON    PTSUNNY   68  54  60 SW10      29.75F
6HR MIN TEMP:  56; 6HR MAX TEMP:  69;

MADISON *+     CLOUDY    68  54  60 SW10      29.80F
NORTH VERNON + CLOUDY    68  57  68 SW9G16    29.78F
SEYMOUR +      PTSUNNY   72  55  56 SW13      29.77F

$$





USA.gov is the U.S. government's official web portal to all federal, state and local government web resources and services.